Regional Weather Roundup
Issued by NWS

Home | Current Version | Previous Version | Text Only | Print | Product List | Glossary On
Versions: 1 2 3 4 5 6 7 8 9 10 11 12 13 14 15 16 17 18 19 20 21 22 23 24 25 26 27 28 29 30 31 32 33 34 35 36 37 38 39 40 41 42 43 44 45 46 47 48 49 50
000
ASCA42 TJSJ 252010
RWRPR
PUERTO RICO/U.S. VIRGIN ISLANDS HOURLY WEATHER ROUNDUP
NATIONAL WEATHER SERVICE SAN JUAN PR
400 PM AST SUN FEB 25 2018

PRZ001>002-007>008-010-252100-
PUERTO RICO

CITY           SKY/WX    TMP DP  RH WIND       PRES   REMARKS
SAN JUAN LMM   MOSUNNY   79  72  78 NE15      30.04S
AGUADILLA      MOSUNNY   79  66  65 E21       30.05F
$$

VIZ001>002-252100-
U.S. VIRGIN ISLANDS

CITY           SKY/WX    TMP DP  RH WIND       PRES   REMARKS
CHARLOTTE AMA  SUNNY     77  72  83 E13       30.03F
CHRISTIANSTED  PTSUNNY   79  70  73 NE14      30.03F
$$

HOURLY WEATHER ROUNDUP FOR THE NEWS MEDIA

CITY           SKY/WX    TMP DP  RH WIND       PRES   REMARKS
ORLANDO        FAIR      86  59  39 S8        30.12F
NEW YORK       CLOUDY    41  41 100 N12       29.96F
NEWARK         CLOUDY    43  41  93 NE12      29.93F
CHICAGO        FAIR      43  24  47 SW22G31   29.92S
HARTFORD       RAIN      42  32  67 E13       29.96F
BOSTON         LGT RAIN  39  38  96 E21       30.01F FOG     WCI  29
DALLAS         PTSUNNY   65  48  54 S10       29.99F
PHILADELPHIA   CLOUDY    47  44  90 CALM      29.96S
LOS ANGELES    SUNNY     65  24  21 E6        30.20F
WASHINGTON DC  CLOUDY    51  51 100 CALM      29.95R


USA.gov is the U.S. government's official web portal to all federal, state and local government web resources and services.